ED1ZAI-13 Weather Reports


time (UTC)temp
C
wind
direction
speed
KPH
gust
KPH
rain 1hr
cm
rain 24hr
cm
rain mn
cm
humidity
%
barometer
mb
20260508044028 7 27 0.0 0.0 0.00 0.25 0.00 82 1010.0
20260508043028 7 24 0.0 0.0 0.00 0.25 0.00 82 1010.0
20260508042028 6 24 0.0 0.0 0.00 0.25 0.00 83 1010.0
20260508041028 6 27 0.0 0.0 0.00 0.25 0.00 82 1009.9
20260508040030 5 27 0.0 0.0 0.00 0.25 0.00 81 1009.8
20260508035029 6 27 0.0 0.0 0.00 0.25 0.00 80 1010.0
20260508034029 6 27 0.0 0.0 0.00 0.25 0.00 80 1010.0
20260508033028 7 24 0.0 0.0 0.00 0.25 0.00 80 1010.0
20260508032028 7 27 0.0 0.0 0.00 0.25 0.00 79 1010.2
20260508031028 7 27 0.0 0.0 0.00 0.25 0.00 79 1010.3
20260508030030 7 27 0.0 0.0 0.00 0.25 0.00 80 1010.3
20260508025029 7 27 0.0 0.0 0.00 0.25 0.00 80 1010.5
20260508024029 7 24 0.0 0.0 0.00 0.25 0.00 81 1010.5
20260508023027 7 27 0.0 0.0 0.00 0.25 0.00 81 1010.5
20260508022029 7 27 0.0 0.0 0.00 0.25 0.00 82 1010.6
20260508021028 7 24 0.0 0.0 0.00 0.25 0.00 83 1010.7
20260508020028 7 27 0.0 1.6 0.00 0.25 0.00 82 1010.9
20260508015028 6 27 1.6 3.2 0.00 0.25 0.00 82 1010.9
20260508014027 6 25 3.2 4.8 0.00 0.25 0.00 81 1010.8
20260508013027 7 21 3.2 4.8 0.00 0.25 0.00 81 1010.9
20260508012029 7 9 1.6 3.2 0.00 0.25 0.00 78 1011.1
20260508010802 8 345 0.0 0.0 0.00 0.25 0.00 77 1011.2
20260508005802 8 346 0.0 0.0 0.00 0.25 0.00 77 1011.2
20260508004802 8 346 0.0 0.0 0.00 0.25 0.00 77 1011.4
20260508003801 8 346 0.0 0.0 0.00 0.25 0.00 76 1011.4
20260508002801 8 345 0.0 0.0 0.00 0.25 0.00 76 1011.6
20260508001803 8 345 0.0 0.0 0.00 0.25 0.00 76 1011.7
20260508000802 8 346 0.0 0.0 0.00 0.25 0.00 76 1011.6
20260507235802 8 346 0.0 0.0 0.00 0.25 0.00 77 1011.7
20260507234802 8 346 0.0 0.0 0.00 0.25 0.00 76 1011.6
20260507233802 8 346 0.0 0.0 0.00 0.25 0.00 75 1011.6
20260507232801 8 343 0.0 0.0 0.00 0.25 0.00 76 1011.7
20260507231801 8 342 0.0 0.0 0.00 0.25 0.00 75 1011.7
20260507230802 8 342 0.0 0.0 0.00 0.25 0.00 74 1011.7
20260507225801 9 340 0.0 0.0 0.00 0.25 0.00 73 1011.8
20260507224801 9 334 0.0 0.0 0.00 0.25 0.00 74 1011.6
20260507223801 9 341 0.0 0.0 0.00 0.25 0.00 74 1011.7
20260507222801 9 340 0.0 0.0 0.00 0.25 0.00 74 1011.6
20260507221800 9 342 0.0 0.0 0.00 0.25 0.00 74 1011.5
20260507220800 9 345 0.0 0.0 0.00 0.25 0.25 74 1011.6
20260507205532 11 344 0.0 0.0 0.00 0.25 0.25 68 1011.3
20260507204532 11 340 0.0 3.2 0.00 0.25 0.25 67 1011.1
20260507203531 11 104 0.0 0.0 0.00 0.25 0.25 69 1011.0
20260507202533 11 219 0.0 1.6 0.00 0.25 0.25 70 1010.7
20260507201533 11 216 0.0 0.0 0.00 0.25 0.25 69 1010.8
20260507200532 11 163 0.0 1.6 0.00 0.25 0.25 70 1010.6
20260507195532 10 166 0.0 6.4 0.00 0.25 0.25 74 1010.7
20260507194532 10 217 0.0 3.2 0.00 0.25 0.25 74 1010.4
20260507193532 10 87 1.6 4.8 0.00 0.25 0.25 74 1010.4
20260507192532 11 83 1.6 4.8 0.00 0.25 0.25 72 1010.5
20260507191532 12 82 1.6 4.8 0.00 0.25 0.25 67 1010.2
20260507190531 13 102 0.0 1.6 0.00 0.25 0.25 59 1009.9
20260507185531 15 107 0.0 0.0 0.00 0.25 0.25 52 1009.9
20260507184531 16 111 0.0 1.6 0.00 0.25 0.25 49 1009.9
20260507183530 18 83 0.0 0.0 0.00 0.25 0.25 46 1009.9
20260507182530 18 138 0.0 0.0 0.00 0.25 0.25 47 1009.9
20260507181530 15 178 0.0 0.0 0.00 0.25 0.25 53 1009.9
20260507180532 15 195 0.0 0.0 0.00 0.25 0.25 54 1010.0
20260507180154 15 195 0.0 0.0 0.00 0.25 0.25 54 1010.0
20260507175154 14 82 0.0 0.0 0.00 0.25 0.25 55 1009.9
20260507174154 18 123 0.0 0.0 0.00 0.25 0.25 46 1009.7
20260507173153 17 185 0.0 0.0 0.00 0.25 0.25 51 1009.8
20260507172154 15 122 1.6 4.8 0.00 0.25 0.25 57 1009.8
20260507171154 13 217 1.6 6.4 0.00 0.25 0.25 54 1009.9
20260507170154 15 241 0.0 3.2 0.00 0.25 0.25 55 1009.8
20260507165155 15 252 0.0 1.6 0.00 0.25 0.25 57 1009.7
20260507164155 14 267 0.0 1.6 0.00 0.25 0.25 58 1009.6
20260507163154 18 267 0.0 0.0 0.00 0.25 0.25 57 1009.8
20260507162153 15 265 0.0 1.6 0.00 0.25 0.25 60 1009.9
20260507161155 14 266 0.0 0.0 0.00 0.25 0.25 67 1009.9
20260507160154 13 266 0.0 0.0 0.00 0.25 0.25 66 1010.0
20260507155153 13 266 0.0 0.0 0.00 0.25 0.25 68 1010.1
20260507154155 12 266 0.0 0.0 0.00 0.25 0.25 71 1010.3
20260507153154 12 266 0.0 0.0 0.15 0.25 0.25 75 1010.1
20260507152154 12 265 0.0 0.0 0.15 0.25 0.25 75 1010.3
20260507151154 11 266 0.0 0.0 0.15 0.25 0.25 75 1010.2
20260507150154 10 266 0.0 0.0 0.15 0.25 0.25 74 1009.9
20260507145153 10 266 0.0 0.0 0.15 0.25 0.25 79 1010.3
20260507144153 8 255 3.2 6.4 0.15 0.25 0.25 82 1010.9
20260507143155 7 242 6.4 12.9 0.10 0.20 0.20 83 1011.0
20260507142154 10 89 4.8 12.9 0.00 0.10 0.10 71 1010.1
20260507141154 13 297 0.0 0.0 0.00 0.10 0.10 56 1009.8
20260507140154 13 297 0.0 1.6 0.00 0.10 0.10 55 1009.8
20260507135154 15 83 0.0 3.2 0.00 0.10 0.10 49 1009.8
20260507134154 15 119 0.0 0.0 0.00 0.10 0.10 47 1009.8
20260507133153 15 140 0.0 1.6 0.00 0.10 0.10 50 1009.8
20260507132153 14 159 0.0 4.8 0.00 0.10 0.10 48 1009.8
20260507131152 15 99 1.6 3.2 0.00 0.10 0.10 48 1009.8
20260507130152 13 234 3.2 9.7 0.00 0.10 0.10 49 1009.8
20260507125154 13 222 3.2 6.4 0.00 0.10 0.10 48 1009.7
20260507124153 13 216 4.8 8.0 0.00 0.10 0.10 49 1009.7
20260507123153 15 187 1.6 6.4 0.00 0.10 0.10 47 1009.8
20260507122153 16 213 1.6 8.0 0.00 0.10 0.10 45 1009.9
20260507121153 17 115 1.6 6.4 0.00 0.10 0.10 39 1010.0
20260507120152 15 85 1.6 6.4 0.00 0.10 0.10 45 1010.3
20260507114934 15 60 1.6 4.8 0.00 0.10 0.10 49 1010.4
20260507113936 13 139 1.6 6.4 0.00 0.10 0.10 53 1010.6
20260507112935 11 84 6.4 8.0 0.00 0.10 0.10 59 1010.9
20260507111935 13 87 3.2 8.0 0.00 0.10 0.10 59 1010.8
20260507110935 13 146 3.2 8.0 0.00 0.10 0.10 58 1011.0
20260507105936 12 119 4.8 8.0 0.00 0.10 0.10 63 1011.1
20260507104935 12 84 3.2 6.4 0.00 0.10 0.10 66 1011.2
20260507103935 12 87 4.8 6.4 0.00 0.10 0.10 64 1011.1
20260507102935 12 93 4.8 8.0 0.10 0.10 0.10 66 1011.1
20260507101934 13 171 3.2 6.4 0.10 0.10 0.10 65 1011.1
20260507100936 13 89 3.2 6.4 0.10 0.10 0.10 59 1011.2
20260507095936 13 83 0.0 9.7 0.10 0.10 0.10 58 1011.2
20260507094935 15 194 0.0 0.0 0.10 0.10 0.10 66 1010.8
20260507093935 14 180 0.0 0.0 0.10 0.10 0.10 70 1010.8
20260507092935 11 116 0.0 1.6 0.05 0.05 0.05 76 1011.0
20260507091935 9 338 0.0 1.6 0.00 0.00 0.00 75 1010.9
20260507090934 8 86 4.8 9.7 0.00 0.00 0.00 75 1011.4
20260507085936 10 87 3.2 8.0 0.00 0.00 0.00 65 1011.0
20260507084936 12 89 3.2 8.0 0.00 0.00 0.00 56 1010.8
20260507083935 15 89 0.0 1.6 0.00 0.00 0.00 56 1010.7
20260507082935 15 160 0.0 4.8 0.00 0.00 0.00 50 1010.4
20260507081935 13 301 0.0 1.6 0.00 0.00 0.00 58 1010.6
20260507080935 13 214 0.0 4.8 0.00 0.00 0.00 53 1010.5
20260507075934 12 92 0.0 0.0 0.00 0.00 0.00 61 1010.6
20260507074934 13 110 0.0 3.2 0.00 0.00 0.00 62 1010.7
20260507073936 10 11 0.0 3.2 0.00 0.00 0.00 69 1010.7
20260507072936 9 20 1.6 3.2 0.00 0.00 0.00 69 1010.8
20260507071935 9 34 0.0 0.0 0.00 0.00 0.00 69 1010.9
20260507070935 8 31 0.0 0.0 0.00 0.00 0.00 72 1010.9
20260507065935 8 31 0.0 0.0 0.00 0.00 0.00 74 1010.9
20260507064934 7 34 0.0 0.0 0.00 0.00 0.00 75 1010.9
20260507063934 7 31 0.0 0.0 0.00 0.00 0.00 74 1010.7
20260507062934 7 34 0.0 0.0 0.00 0.00 0.00 76 1010.8
20260507061933 6 34 1.6 3.2 0.00 0.00 0.00 77 1010.9
20260507060935 6 32 1.6 3.2 0.00 0.00 0.00 75 1010.8
20260507055935 6 30 1.6 3.2 0.00 0.00 0.00 76 1010.8
20260507054935 6 32 1.6 3.2 0.00 0.00 0.00 76 1010.7
20260507053934 6 30 1.6 3.2 0.00 0.00 0.00 76 1010.6
20260507053125 6 30 1.6 3.2 0.00 0.00 0.00 76 1010.6
20260507052125 5 32 1.6 3.2 0.00 0.00 0.00 77 1010.6
20260507051124 5 30 1.6 3.2 0.00 0.00 0.00 77 1010.6
20260507050124 5 30 3.2 4.8 0.00 0.00 0.00 76 1010.6
20260507045124 6 32 1.6 3.2 0.00 0.00 0.00 76 1010.6